マクノート彗星

C/2009 F2 ( McNaught )

English version
Home page
Updated on August 21, 2012

---------------------------------------------------------------------

・ プロフィール

発見日 2009年3月19日
発見光度 17.7等
発見者 R. H. McNaught (Siding Spring)

・ 写真集

・ 軌道要素

Epoch 2009 Nov. 25.0 TT = JDT 2455160.5
T 2009 Nov. 14.27437 TT                                 MPC
q   5.8751816            (2000.0)            P               Q
z  +0.0028564      Peri.  336.35854     -0.87340882     -0.07073107
 +/-0.0000018      Node   214.05810     -0.17809536     -0.87446815
e   0.9832181      Incl.   59.35572     -0.45325388     +0.47989850
From 302 observations 2009 Mar. 19-2012 July 23, mean residual 0".6.

・ 光度変化

        m1 = 6.0 + 5 logΔ + 10.0 log r

---------------------------------------------------------------------

軌道要素はM.P.E.C. 2012-P31に掲載されたものです。
光度グラフはComet for Windowsで作成したものです。

---------------------------------------------------------------------

Copyright(C) Seiichi Yoshida (comet@aerith.net). All rights reserved.